Погода в Саскылахе

Погода в Саскылахе : погода сейчас, прогноз погоды и архив. Всё, что Вы хотите узнать о погоде в Саскылахе!

Хотите узнать прогноз погоды в Саскылахе? Тогда Вам сюда: Погода в Саскылахе

Поиск расширенной информации на нашем сайте:

Другие новости

Новости СМИ2

Главная страница сайта

Новости сайта

03.07.2017

Напоминаем, что на нашем специализированном сайте Метеоцентр.Азия вы можете получить высокодетализированные автоматические прогнозы погоды по пунктам России, СНГ и мира в авиационном формате (включающие направление и скорость ветра, видимость, явления погоды, количество и форму облачности, нижнюю и верхнюю границу облачности).

Рекомендуем: разместить услугу

Погода в Саскылахе - сегодня

Время (UTC), дата Ветер
(°,м/с) 
Видим.   Явления Облачность Т
(°С)
Тd
(°С)
f(%) Тe
(°С)
Pmin
(гПа)
dP
(гПа)
Po
(мм)
O2
(г/м3)
Тmin Tmax R s Состояние
почвы
12 18.11.17 340 (С) 20000 м    ясно 
-21.8 -23.7 85 -29  1026  768  338    -13.9       
15 18.11.17 330 (СЗ) 20000 м    10/0 средняя 
[As op]
-19.8 -21.6 86 -24  1025.2  -0.9  767  335           
18 18.11.17 330 (СЗ) 20000 м    10/0 средняя 
[As op]
-18.9 -20.6 86 -24  1024.6  -0.6  767  333           
21 18.11.17 320 (СЗ) 20000 м    10/0 средняя 
[Ac und]
-18.2 -19.8 87 -22  1024.5  -0.1  766  332           
00 19.11.17 300 (СЗ) 36  20000 м    10/0 средняя 
[Ac und]
-19.3 -21.3 84 -36  1024.9  0.4  767  334  -19.4      21  неравномерный
мокрый или
старый снег
100% 
03 19.11.17 310 (СЗ) 20000 м    10/0 средняя 
[Ac und]
-19.7 -21.2 88 -22  1024.9  767  335           
06 19.11.17 330 (СЗ) 20000 м    10/0 средняя 
[Ac und]
-20 -22 84 -23  1025.4  0.5  767  335           
09 19.11.17 340 (С) 20000 м    10/0 средняя 
[Ac und]
-22.8 -24.9 83 -26  1026.3  0.9  768  339           
12 19.11.17 340 (С) 20000 м    ясно 
-26.7 -29.2 79 -30  1026.9  0.5  768  345    -19.3       
15 19.11.17 тихо ()   20000 м    ясно 
-30.4 -33.3 76 -30  1027  0.1  768  350           
18 19.11.17 тихо ()   20000 м    6/0 средняя 
[Ac trans]
-25.1 -27.6 80 -25  1026.5  -0.4  768  343           
21 19.11.17 320 (СЗ) 20000 м  слаб. снег  10/10 300 м верхняя 
[Sc|As trans|Cs]
-22.1 -24.2 83 -27  1025.6  -0.9  767  338           
00 20.11.17 320 (СЗ) 20000 м  {снег}  10/0 средняя 
[As op]
-21.7 -23.8 83 -26  1024.5  -1.1  766  337  -30.5    0.3  23  неравномерный
мокрый или
старый снег
100% 
03 20.11.17 320 (СЗ) 20000 м    3/0 средняя 
[As op]
-19.4 -21.3 85 -25  1022.7  -1.7  765  334           
06 20.11.17 320 (СЗ) 20000 м    10/10 420 м 
[Sc]
-17.4 -19 87 -22  1020.8  -1.7  764  330           
09 20.11.17 320 (СЗ) 20000 м    10/0 средняя, верхняя 
[St|As trans|Ci]
-14.3 -15.7 89 -20  1020.1  -0.7  763  326           
12 20.11.17 340 (С) 20000 м    10/10 630 м 
[Sc]
-14.4 -15.9 88 -20  1014.7  -0.4  763  326    -14.3       
15 20.11.17 330 (СЗ) 20000 м    10/0 средняя 
[Ac und]
-14.6 -16.1 88 -19  1018.9  -0.8  762  326           
18 20.11.17 340 (С) 20000 м    10/10 360 м 
[Sc]
-14.1 -15.4 90 -19  1018.9  762  325           
21 20.11.17 350 (С) 7-11{12}  20000 м    10/6 1050 м средняя 
[Sc|Ac und]
-13.3 -15 87 -20  1019.9  763  325           
00 21.11.17 020 (С) 9-14{14}  4000 м  позёмок{снег}  10/0 средняя 
[As op]
-14.5 -16.3 86 -22  1020.6  764  326  -14.8      27  неравномерный
сухой снег
100% 
09 21.11.17 320 (СЗ) 6{11}  4000 м  слаб. снег  10/10 300 м 
[Ns]
-16 -17.8 86 -22  1024.3  1.3  766  330           
12 21.11.17 320 (СЗ) 4000 м  слаб. снег  10/10 300 м 
[Ns]
-17.3 -18.9 87 -24  1024.3  766  331    -14.2     
00 22.11.17 330 (СЗ) 20000 м  {снег}  10/10 300 м 
[Ns]
-23.2 -24.8 87 -30  1034.3  1.3  774  343  -23.3    0.8  27  неравномерный
сухой снег
100% 
03 22.11.17 320 (СЗ) 4000 м  дымка  4/0 средняя 
[Ac und]
-26.1 -27.6 87 -35  1035.4  1.1  775  347           
Время (UTC), дата Ветер
(°,м/с) 
Видим.   Явления Облачность Т
(°С)
Тd
(°С)
f(%) Тe
(°С)
Pmin
(гПа)
dP
(гПа)
Po
(мм)
O2
(г/м3)
Тmin Tmax R s Состояние
почвы

Для получения пояснительной информации подведите курсор к названию столбца.

ПОГОДА в Саскылахе - архив

Всё, что Вы хотите узнать о погоде в Саскылахе - удобно и подробно!

Выберите нужную дату (начиная с 1 января 2015* года) и нажмите кнопку "Найти".
Будут отображены архивные сводки погоды по пункту Саскылах, начиная с указанной даты.


Отображать данные в формате CSV (для использования в таблицах Excel)


Внимание! Наш архив погоды предназначен исключительно для личного некоммерческого использования в познавательных целях. Если Вам необходимы официальные справки о состоянии погоды (для производственных, юридических, коммерческих и т.п. целей), обращайтесь в органы Росгидромета.

*Примечание: данная дата относится к архиву по метеостанциям СССР (Россия, СНГ, Балтия).
Архив по метеостанциям Зарубежной Европы и Азии (кроме Китая) хранится 10 дней, по другим регионам земного шара (Китай, Африка, Америка, Австралия, Океания) - 1 день.

Саскылах - район местоположения метеостанции


Название, широта, долгота, высота метеостанции:
Саскылах 72°ш. 114.1°д. 18 м над ур. моря [Российская Федерация]

Дополнительная информация

В oтличие oт бoльшинства пoгoдных сайтoв мы публикуем пoдрoбную метеoинфoрмацию в детальнoм прoфессиoнальнoм фoрмате.

Характеристики температуры и влажнoсти вoздуха измеряются на высoте 2 м в тени вдали oт зданий и деревьев.
Скoрoсть ветра измеряется на высoте 10 м (на урoвне рoста челoвека скoрoсть ветра ниже в 1.5-2 раза). Если метеoстанция нахoдится в гoрoде или в лесу, тo скoрoсть ветра занижена на 2-4 м/с пo сравнению с oткрытым местoм. Скoрoсть ветра над акватoриями крупных рек и oзёр, а также на вершинах хoлмoв на 2-5 м/с выше, чем в oбычных услoвиях.
Атмoсфернoе давление в разных тoчках местнoсти мoжет значительнo oтличаться oт давления на метеoстанции, в зависимoсти oт услoвий рельефа (при пoдъёме на 10 м давление пoнижается примернo на 1 мм рт.ст.).